Tracking 25711 objects as of 22-May-2022
HD Live streaming from Space Station
objects crossing your sky now

DICE 1

Track DICE 1 now!
10-day predictions
DICE 1 is classified as:


NORAD ID: 37851
Int'l Code: 2011-061B
Perigee: 431.6 km
Apogee: 660.6 km
Inclination: 101.7 °
Period: 95.4 minutes
Semi major axis: 6917 km
RCS: 0.0809 m2 (small)
Launch date: October 28, 2011
Source: United States (US)
Launch site: AIR FORCE WESTERN TEST RANGE (AFWTR)
aabbcc
Your satellite tracking list
Your tracking list is empty




NASA's NSSDC Master Catalog

Two Line Element Set (TLE):
1 37851U 11061B   22142.55136783  .00024905  00000-0  11394-2 0  9992
2 37851 101.7270 239.5313 0165546 175.9262 184.3344 15.09108605576885
Source of the keplerian elements: AFSPC